GW0774 Weather Reports


time (UTC)temp
C
wind
direction
speed
KPH
gust
KPH
rain 1hr
cm
rain 24hr
cm
rain mn
cm
humidity
%
barometer
mb
20260507112038 14 0 0.0 1.6 0.00 0.00 0.00 86 1016.5
20260507111552 14 109 0.0 1.6 0.00 0.00 0.00 86 1016.4
20260507111038 14 0 0.0 1.6 0.00 0.00 0.00 85 1016.5
20260507110539 15 0 0.0 1.6 0.00 0.00 0.00 85 1016.6
20260507110051 15 109 0.0 1.6 0.00 0.00 0.00 85 1016.6
20260507105538 15 109 0.0 3.2 0.00 0.00 0.00 85 1016.7
20260507105038 15 109 1.6 3.2 0.00 0.00 0.00 85 1016.6
20260507104547 15 109 0.0 3.2 0.00 0.00 0.00 85 1016.9
20260507104039 15 109 1.6 3.2 0.00 0.00 0.00 85 1017.0
20260507103539 15 109 0.0 1.6 0.00 0.00 0.00 85 1017.0
20260507103046 15 0 0.0 1.6 0.00 0.00 0.00 85 1017.2
20260507102538 15 109 0.0 3.2 0.00 0.00 0.00 85 1017.1
20260507102038 15 109 0.0 3.2 0.00 0.00 0.00 85 1017.3
20260507101547 15 108 3.2 3.2 0.00 0.00 0.00 85 1017.2
20260507101041 15 109 1.6 3.2 0.00 0.00 0.00 85 1017.3
20260507100538 15 109 0.0 3.2 0.00 0.00 0.00 85 1017.4
20260507100043 15 0 0.0 0.0 0.00 0.00 0.00 85 1017.4
20260507095539 15 0 0.0 3.2 0.00 0.00 0.00 85 1017.6
20260507095039 15 0 0.0 3.2 0.00 0.00 0.00 85 1017.6
20260507094553 15 109 3.2 3.2 0.00 0.00 0.00 85 1017.6
20260507094038 15 107 3.2 3.2 0.00 0.00 0.00 85 1017.6
20260507093538 15 106 3.2 3.2 0.00 0.00 0.00 84 1017.5
20260507093051 15 106 1.6 3.2 0.00 0.00 0.00 83 1017.4
20260507092539 15 0 0.0 0.0 0.00 0.00 0.00 82 1017.5
20260507092041 15 0 0.0 0.0 0.00 0.00 0.00 81 1017.5
20260507091545 15 0 0.0 0.0 0.00 0.00 0.00 80 1017.5
20260507091038 16 0 0.0 0.0 0.00 0.00 0.00 80 1017.5
20260507090538 16 0 0.0 0.0 0.00 0.00 0.00 80 1017.5
20260507090051 16 0 0.0 0.0 0.00 0.00 0.00 80 1017.5
20260507085540 16 0 0.0 0.0 0.00 0.00 0.00 80 1017.6
20260507085039 16 0 0.0 0.0 0.00 0.00 0.00 80 1017.6
20260507084553 16 0 0.0 0.0 0.00 0.00 0.00 80 1017.7
20260507084036 16 0 0.0 0.0 0.00 0.00 0.00 80 1017.6
20260507083539 16 0 0.0 0.0 0.00 0.00 0.00 79 1017.7
20260507083050 16 0 0.0 0.0 0.00 0.00 0.00 79 1017.7
20260507082543 16 0 0.0 0.0 0.00 0.00 0.00 79 1017.7
20260507082039 16 0 0.0 0.0 0.00 0.00 0.00 80 1017.8
20260507081547 16 0 0.0 0.0 0.00 0.00 0.00 80 1017.7
20260507081040 16 0 0.0 0.0 0.00 0.00 0.00 80 1017.8
20260507080539 15 0 0.0 0.0 0.00 0.00 0.00 80 1017.9
20260507080116 16 0 0.0 0.0 0.00 0.00 0.00 79 1017.8
20260507075538 16 0 0.0 0.0 0.00 0.00 0.00 79 1017.7
20260507075038 16 0 0.0 0.0 0.00 0.00 0.00 78 1017.8
20260507074558 16 0 0.0 0.0 0.00 0.00 0.00 78 1017.7
20260507074039 16 0 0.0 1.6 0.00 0.00 0.00 77 1017.7
20260507073539 16 0 0.0 1.6 0.00 0.00 0.00 76 1017.6
20260507073058 16 115 0.0 1.6 0.00 0.00 0.00 76 1017.6
20260507072539 16 115 0.0 1.6 0.00 0.00 0.00 77 1017.6
20260507072037 16 115 0.0 1.6 0.00 0.00 0.00 78 1017.6
20260507071557 16 115 0.0 1.6 0.00 0.00 0.00 78 1017.7
20260507071041 16 129 0.0 1.6 0.00 0.00 0.00 78 1017.7
20260507070539 16 144 0.0 0.0 0.00 0.00 0.00 78 1017.7
20260507070049 16 0 0.0 0.0 0.00 0.00 0.00 78 1017.7
20260507065538 16 0 0.0 0.0 0.00 0.00 0.00 80 1017.7
20260507065038 16 0 0.0 0.0 0.00 0.00 0.00 80 1017.7
20260507064555 16 0 0.0 0.0 0.00 0.00 0.00 80 1017.8
20260507064038 16 0 0.0 0.0 0.00 0.00 0.00 80 1017.9
20260507063539 16 0 0.0 0.0 0.00 0.00 0.00 80 1017.9
20260507063046 16 0 0.0 0.0 0.00 0.00 0.00 80 1018.0
20260507062536 16 0 0.0 0.0 0.00 0.00 0.00 80 1018.0
20260507062039 16 0 0.0 0.0 0.00 0.00 0.00 80 1017.9
20260507061549 16 0 0.0 0.0 0.00 0.00 0.00 80 1017.9
20260507061036 16 0 0.0 0.0 0.00 0.00 0.00 80 1017.8
20260507060541 16 0 0.0 0.0 0.00 0.00 0.00 80 1017.8
20260507060050 16 0 0.0 0.0 0.00 0.00 0.00 79 1017.9
20260507055540 16 0 0.0 0.0 0.00 0.00 0.00 79 1017.9
20260507055038 16 0 0.0 0.0 0.00 0.00 0.00 79 1018.0
20260507054551 16 0 0.0 0.0 0.00 0.00 0.00 79 1018.0
20260507054040 16 0 0.0 1.6 0.00 0.00 0.00 79 1018.0
20260507053539 16 0 0.0 1.6 0.00 0.00 0.00 78 1017.9
20260507053048 16 153 0.0 1.6 0.00 0.00 0.00 77 1017.9
20260507052538 16 0 0.0 0.0 0.00 0.00 0.00 76 1018.0
20260507052039 17 153 0.0 1.6 0.00 0.00 0.00 76 1018.0
20260507051549 17 0 0.0 1.6 0.00 0.00 0.00 74 1017.9
20260507051038 17 153 0.0 1.6 0.00 0.00 0.00 73 1017.9
20260507050536 17 159 0.0 0.0 0.00 0.00 0.00 72 1017.8
20260507050044 18 0 0.0 0.0 0.00 0.00 0.00 70 1017.9
20260507045539 18 0 0.0 0.0 0.00 0.00 0.00 69 1017.8
20260507045039 18 0 0.0 0.0 0.00 0.00 0.00 68 1017.9
20260507044551 18 0 0.0 0.0 0.00 0.00 0.00 67 1018.0
20260507044038 19 0 0.0 0.0 0.00 0.00 0.00 66 1018.0
20260507043539 19 0 0.0 0.0 0.00 0.00 0.00 65 1018.0
20260507043048 20 0 0.0 1.6 0.00 0.00 0.00 64 1018.0
20260507042539 20 0 0.0 3.2 0.00 0.00 0.00 63 1018.0
20260507042038 20 0 0.0 9.7 0.00 0.00 0.00 62 1018.2
20260507041546 21 265 1.6 9.7 0.00 0.00 0.00 61 1018.1
20260507041059 21 63 0.0 6.4 0.00 0.00 0.00 60 1018.1
20260507040539 21 261 1.6 6.4 0.00 0.00 0.00 60 1018.2
20260507040058 21 68 0.0 4.8 0.00 0.00 0.00 60 1018.4
20260507035539 21 44 0.0 4.8 0.00 0.00 0.00 60 1018.3
20260507035038 21 0 0.0 11.3 0.00 0.00 0.00 60 1018.4
20260507034556 21 53 3.2 20.9 0.00 0.00 0.00 60 1018.5
20260507034035 21 292 4.8 20.9 0.00 0.00 0.00 59 1018.5
20260507033536 21 242 3.2 20.9 0.00 0.00 0.00 58 1018.4
20260507033048 21 232 6.4 20.9 0.00 0.00 0.00 56 1018.5
20260507032539 22 280 3.2 19.3 0.00 0.00 0.00 56 1018.7
20260507032036 22 346 4.8 19.3 0.00 0.00 0.00 55 1018.7
20260507031545 22 61 3.2 17.7 0.00 0.00 0.00 55 1018.7
20260507031036 22 261 3.2 14.5 0.00 0.00 0.00 55 1018.7
20260507030537 22 71 3.2 24.1 0.00 0.00 0.00 57 1018.7
20260507030053 21 306 4.8 24.1 0.00 0.00 0.00 56 1018.7
20260507025538 21 26 8.0 22.5 0.00 0.00 0.00 57 1018.8
20260507025040 21 228 8.0 22.5 0.00 0.00 0.00 58 1018.9
20260507024545 21 269 4.8 22.5 0.00 0.00 0.00 59 1019.0
20260507024040 21 185 6.4 22.5 0.00 0.00 0.00 58 1019.0
20260507023539 21 333 4.8 16.1 0.00 0.00 0.00 58 1019.1
20260507023047 21 52 3.2 12.9 0.00 0.00 0.00 57 1018.9
20260507022539 21 300 4.8 12.9 0.00 0.00 0.00 58 1019.0
20260507022038 21 336 4.8 14.5 0.00 0.00 0.00 58 1018.9
20260507021550 21 63 6.4 14.5 0.00 0.00 0.00 58 1018.9
20260507021037 21 223 3.2 12.9 0.00 0.00 0.00 57 1018.9
20260507020536 21 76 3.2 12.9 0.00 0.00 0.00 58 1019.0
20260507020057 21 248 3.2 12.9 0.00 0.00 0.00 58 1019.3
20260507015538 21 40 3.2 16.1 0.00 0.00 0.00 56 1019.2
20260507015038 21 255 3.2 17.7 0.00 0.00 0.00 57 1019.4
20260507014557 21 72 4.8 19.3 0.00 0.00 0.00 57 1019.4
20260507014036 21 320 4.8 25.7 0.00 0.00 0.00 55 1019.6
20260507013542 22 67 8.0 25.7 0.00 0.00 0.00 55 1019.6
20260507013045 22 195 4.8 24.1 0.00 0.00 0.00 55 1019.8
20260507012538 22 77 4.8 24.1 0.00 0.00 0.00 56 1019.8
20260507012038 22 54 4.8 24.1 0.00 0.00 0.00 56 1019.6
20260507011601 22 60 8.0 20.9 0.00 0.00 0.00 55 1019.8
20260507011039 22 300 4.8 16.1 0.00 0.00 0.00 55 1019.7
20260507010539 22 53 3.2 17.7 0.00 0.00 0.00 58 1019.8
20260507010048 21 242 4.8 22.5 0.00 0.00 0.00 60 1019.9
20260507005539 21 309 6.4 24.1 0.00 0.00 0.00 60 1019.9
20260507005041 21 269 8.0 25.7 0.00 0.00 0.00 58 1019.9
20260507004550 21 248 12.9 25.7 0.00 0.00 0.00 60 1019.9
20260507004039 21 254 8.0 20.9 0.00 0.00 0.00 61 1019.9
20260507003539 21 32 4.8 20.9 0.00 0.00 0.00 65 1020.0
20260507003047 21 277 11.3 20.9 0.00 0.00 0.00 63 1020.1
20260507002538 21 286 4.8 24.1 0.00 0.00 0.00 64 1020.3
20260507002039 21 248 6.4 24.1 0.00 0.00 0.00 66 1020.5
20260507001555 21 304 4.8 16.1 0.00 0.00 0.00 67 1020.6
20260507001038 20 128 4.8 12.9 0.00 0.00 0.00 67 1020.8
20260507000541 20 46 3.2 16.1 0.00 0.00 0.00 66 1020.8
20260507000051 20 265 4.8 17.7 0.00 0.00 0.00 67 1020.8
20260506235540 20 52 8.0 17.7 0.00 0.00 0.00 67 1020.9
20260506235038 20 325 6.4 17.7 0.00 0.00 0.00 66 1020.9
20260506234548 20 295 8.0 14.5 0.00 0.00 0.00 68 1020.9
20260506234039 21 47 4.8 12.9 0.00 0.00 0.00 67 1021.0
20260506233539 21 244 3.2 12.9 0.00 0.00 0.00 69 1021.0
20260506233049 21 46 3.2 9.7 0.00 0.00 0.00 67 1021.1
20260506232538 21 194 1.6 9.7 0.00 0.00 0.00 70 1021.2
20260506232038 20 184 1.6 9.7 0.00 0.00 0.00 70 1021.2
20260506231544 20 329 3.2 9.7 0.00 0.00 0.00 71 1021.3
20260506231039 20 63 3.2 11.3 0.00 0.00 0.00 72 1021.3
20260506230541 20 49 3.2 12.9 0.00 0.00 0.00 72 1021.5
20260506230052 19 53 4.8 12.9 0.00 0.00 0.00 73 1021.6
20260506225540 19 26 3.2 12.9 0.00 0.00 0.00 74 1021.6
20260506225038 18 263 3.2 9.7 0.00 0.00 0.00 76 1021.7
20260506224545 18 88 3.2 9.7 0.00 0.00 0.00 79 1021.8
20260506224038 18 217 4.8 9.7 0.00 0.00 0.00 82 1021.8
20260506223539 17 69 1.6 4.8 0.00 0.00 0.00 82 1021.8
20260506223039 17 101 1.6 4.8 0.00 0.00 0.00 82 1021.9
20260506222539 16 0 0.0 3.2 0.00 0.00 0.00 83 1021.9
20260506222039 16 0 0.0 3.2 0.00 0.00 0.00 84 1021.9
20260506221542 16 0 0.0 4.8 0.00 0.00 0.00 84 1021.9
20260506221039 15 111 1.6 4.8 0.00 0.00 0.00 85 1021.8
20260506220536 15 0 1.6 4.8 0.00 0.00 0.00 85 1022.0
20260506220106 15 94 1.6 4.8 0.00 0.00 0.00 85 1022.0
20260506215536 15 94 0.0 1.6 0.00 0.00 0.00 85 1022.2
20260506215038 14 94 0.0 3.2 0.00 0.00 0.00 86 1022.2
20260506214548 14 0 0.0 3.2 0.00 0.00 0.00 86 1022.2
20260506214036 14 94 1.6 3.2 0.00 0.00 0.00 86 1022.3
20260506213538 13 94 0.0 1.6 0.00 0.00 0.00 86 1022.4
20260506213050 13 0 0.0 1.6 0.00 0.00 0.00 86 1022.4
20260506212538 13 0 0.0 1.6 0.00 0.00 0.00 86 1022.4
20260506212041 13 0 0.0 6.4 0.00 0.00 0.00 88 1022.4
20260506211544 13 94 1.6 6.4 0.00 0.00 0.00 88 1022.5
20260506211039 13 104 4.8 6.4 0.00 0.00 0.00 89 1022.5
20260506210542 13 109 3.2 6.4 0.00 0.00 0.00 90 1022.5
20260506210045 13 107 3.2 6.4 0.00 0.00 0.00 90 1022.4
20260506205539 13 94 1.6 6.4 0.00 0.00 0.00 90 1022.5
20260506205041 13 94 1.6 6.4 0.00 0.00 0.00 91 1022.6
20260506204552 12 88 1.6 6.4 0.00 0.00 0.00 91 1022.7
20260506204038 13 88 0.0 3.2 0.00 0.00 0.00 92 1022.7
20260506203540 12 0 0.0 3.2 0.00 0.00 0.00 93 1022.9
20260506203138 12 0 1.6 6.4 0.00 0.00 0.00 94 1022.8
20260506202538 12 108 1.6 6.4 0.00 0.00 0.00 94 1022.8
20260506202040 12 88 3.2 6.4 0.00 0.00 0.00 95 1022.8
20260506201549 11 90 0.0 6.4 0.00 0.00 0.00 97 1022.8
20260506201039 10 84 1.6 6.4 0.00 0.00 0.00 97 1022.7
20260506200539 10 91 1.6 4.8 0.00 0.00 0.00 96 1022.8
20260506200052 10 94 1.6 3.2 0.00 0.00 0.00 96 1022.9
20260506195539 9 0 0.0 1.6 0.00 0.00 0.00 96 1022.9
20260506195039 9 0 0.0 1.6 0.00 0.00 0.00 96 1022.9
20260506194549 9 0 0.0 1.6 0.00 0.00 0.00 96 1022.8
20260506194040 9 94 0.0 1.6 0.00 0.00 0.00 96 1022.9
20260506193538 9 94 0.0 1.6 0.00 0.00 0.00 96 1023.1
20260506193049 9 94 1.6 1.6 0.00 0.00 0.00 96 1022.8
20260506192538 9 94 1.6 1.6 0.00 0.00 0.00 96 1022.9
20260506192038 9 0 0.0 1.6 0.00 0.00 0.00 96 1022.9
20260506191552 9 0 0.0 0.0 0.00 0.00 0.00 96 1022.9
20260506191039 9 0 0.0 0.0 0.00 0.00 0.00 96 1022.8
20260506190540 9 0 0.0 1.6 0.00 0.00 0.00 96 1022.9
20260506190049 9 0 0.0 1.6 0.00 0.00 0.00 97 1022.8
20260506185540 9 0 0.0 1.6 0.00 0.00 0.00 96 1022.7
20260506185039 9 0 0.0 1.6 0.00 0.00 0.00 96 1022.8
20260506184552 9 0 0.0 1.6 0.00 0.00 0.00 96 1022.8
20260506184040 9 0 0.0 1.6 0.00 0.00 0.00 96 1022.7
20260506183538 9 0 0.0 1.6 0.00 0.00 0.00 96 1022.8
20260506183049 9 94 0.0 1.6 0.00 0.00 0.00 96 1022.6
20260506182538 9 0 0.0 1.6 0.00 0.00 0.00 95 1022.8
20260506182042 9 0 0.0 1.6 0.00 0.00 0.00 95 1022.8
20260506181547 10 95 0.0 1.6 0.00 0.00 0.00 96 1022.7
20260506181039 10 94 0.0 3.2 0.00 0.00 0.00 96 1022.9
20260506180540 10 0 1.6 3.2 0.00 0.00 0.00 96 1022.9
20260506180053 10 94 0.0 3.2 0.00 0.00 0.00 96 1022.9
20260506175539 10 94 0.0 6.4 0.00 0.00 0.00 96 1023.1
20260506175043 9 95 1.6 6.4 0.00 0.00 0.00 95 1023.1
20260506174605 10 79 3.2 6.4 0.00 0.00 0.00 95 1023.2
20260506174040 10 102 0.0 1.6 0.00 0.00 0.00 95 1023.1
20260506173539 10 102 0.0 1.6 0.00 0.00 0.00 96 1023.2
20260506173055 10 0 0.0 0.0 0.00 0.00 0.00 96 1023.3
20260506172538 10 0 0.0 0.0 0.00 0.00 0.00 96 1023.3
20260506172040 10 0 0.0 0.0 0.00 0.00 0.00 96 1023.4
20260506171604 10 0 0.0 1.6 0.00 0.00 0.00 96 1023.3
20260506171040 10 0 0.0 1.6 0.00 0.00 0.00 95 1023.5
20260506170539 10 102 0.0 1.6 0.00 0.00 0.00 95 1023.4
20260506170048 10 102 0.0 1.6 0.00 0.00 0.00 95 1023.5
20260506165539 10 102 0.0 1.6 0.00 0.00 0.00 95 1023.6
20260506165040 10 0 0.0 1.6 0.00 0.00 0.00 95 1023.7
20260506164558 11 102 0.0 3.2 0.00 0.00 0.00 95 1023.7
20260506164039 11 0 1.6 3.2 0.00 0.00 0.00 96 1023.7
20260506163539 11 102 0.0 1.6 0.00 0.00 0.00 96 1023.7
20260506163121 11 0 0.0 1.6 0.00 0.00 0.00 96 1023.8
20260506162539 11 0 0.0 1.6 0.00 0.00 0.00 96 1023.9
20260506162040 11 0 0.0 1.6 0.00 0.00 0.00 96 1024.0
20260506161554 11 0 0.0 1.6 0.00 0.00 0.00 96 1024.1
20260506161044 11 0 0.0 0.0 0.00 0.00 0.00 95 1024.0
20260506160539 11 0 0.0 0.0 0.00 0.00 0.00 96 1024.0
20260506160056 11 0 0.0 0.0 0.00 0.00 0.00 95 1024.1
20260506155538 11 0 0.0 0.0 0.00 0.00 0.00 95 1024.2
20260506155038 11 0 0.0 1.6 0.00 0.00 0.00 95 1024.1
20260506154552 11 0 0.0 1.6 0.00 0.00 0.00 95 1024.1
20260506154131 11 0 0.0 3.2 0.00 0.00 0.00 95 1024.1
20260506153541 11 92 0.0 3.2 0.00 0.00 0.00 96 1024.1
20260506153055 11 0 0.0 1.6 0.00 0.00 0.00 96 1024.4
20260506152539 11 82 0.0 0.0 0.00 0.00 0.00 95 1024.3
20260506152040 11 0 0.0 0.0 0.00 0.00 0.00 95 1024.3
20260506151550 11 0 0.0 0.0 0.00 0.00 0.00 95 1024.3
20260506151039 11 0 0.0 1.6 0.00 0.00 0.00 95 1024.5
20260506150539 11 0 0.0 1.6 0.00 0.00 0.00 95 1024.6
20260506150048 11 0 0.0 1.6 0.00 0.00 0.00 95 1024.6
20260506145539 11 0 0.0 0.0 0.00 0.00 0.00 95 1024.7
20260506145040 11 0 0.0 1.6 0.00 0.00 0.00 95 1024.9
20260506144552 11 0 0.0 1.6 0.00 0.00 0.00 95 1024.9
20260506144039 11 77 0.0 1.6 0.00 0.00 0.00 95 1024.9
20260506143540 11 0 0.0 0.0 0.00 0.00 0.00 95 1024.9
20260506143050 11 0 0.0 0.0 0.00 0.00 0.00 95 1024.9
20260506142542 11 0 0.0 0.0 0.00 0.00 0.00 95 1025.0
20260506142039 12 0 0.0 0.0 0.00 0.00 0.00 95 1025.0
20260506141554 12 0 0.0 0.0 0.00 0.00 0.00 95 1025.1
20260506141039 12 0 0.0 0.0 0.00 0.00 0.00 95 1025.2
20260506140539 12 0 0.0 0.0 0.00 0.00 0.00 95 1025.1
20260506140054 12 0 0.0 0.0 0.00 0.00 0.00 95 1025.2
20260506135539 12 0 0.0 0.0 0.00 0.00 0.00 95 1025.3
20260506135036 12 0 0.0 0.0 0.00 0.00 0.00 95 1025.2
20260506134553 12 0 0.0 0.0 0.00 0.00 0.00 95 1025.2
20260506134043 12 0 0.0 0.0 0.00 0.00 0.00 95 1025.2
20260506133539 12 77 0.0 1.6 0.00 0.00 0.00 95 1025.2
20260506133054 12 0 0.0 1.6 0.00 0.00 0.00 95 1025.3
20260506132536 12 77 0.0 1.6 0.00 0.00 0.00 95 1025.3
20260506132036 12 77 0.0 1.6 0.00 0.00 0.00 95 1025.3
20260506131548 12 0 0.0 0.0 0.00 0.00 0.00 95 1025.3
20260506131039 12 0 0.0 0.0 0.00 0.00 0.00 95 1025.3
20260506130540 12 0 0.0 1.6 0.00 0.00 0.00 95 1025.2
20260506130050 12 0 0.0 1.6 0.00 0.00 0.00 96 1025.3
20260506125540 12 0 0.0 0.0 0.00 0.00 0.00 96 1025.4
20260506125039 12 0 0.0 0.0 0.00 0.00 0.00 95 1025.2
20260506124550 12 0 0.0 0.0 0.00 0.00 0.00 95 1025.4
20260506124036 12 0 0.0 0.0 0.00 0.00 0.00 95 1025.4
20260506123536 12 0 0.0 0.0 0.00 0.00 0.00 95 1025.3
20260506123050 12 0 0.0 0.0 0.00 0.00 0.00 95 1025.4
20260506122535 12 0 0.0 0.0 0.00 0.00 0.00 95 1025.3
20260506122036 12 0 0.0 0.0 0.00 0.00 0.00 95 1025.3
20260506121604 12 0 0.0 0.0 0.00 0.00 0.00 95 1025.3
20260506121036 12 0 0.0 0.0 0.00 0.00 0.00 96 1025.4
20260506120537 12 0 0.0 0.0 0.00 0.00 0.00 96 1025.3
20260506120050 12 0 0.0 0.0 0.00 0.00 0.00 96 1025.3
20260506115540 12 0 0.0 0.0 0.00 0.00 0.00 95 1025.3
20260506115037 12 0 0.0 0.0 0.00 0.00 0.00 95 1025.3
20260506114546 12 0 0.0 1.6 0.00 0.00 0.00 95 1025.3
20260506114040 12 0 0.0 1.6 0.00 0.00 0.00 95 1025.3
20260506113539 12 0 0.0 1.6 0.00 0.00 0.00 95 1025.2
20260506113047 12 0 0.0 3.2 0.00 0.00 0.00 96 1025.3
20260506112537 12 0 0.0 3.2 0.00 0.00 0.00 96 1025.4